Кировское водохранилище

Киргизия     42°38′07″N   71°38′26″E
В апреле 2022 года жителям России запретили посещать сайт meteo.paraplan.net по решению Генеральной прокуратуры. Аудитория сайта уменьшилась в 10 раз. Владельцы сайта не видят смысла в поддержке погодного сервера в таких условиях. Сайт будет закрыт в октябре.
темп.,
°C
ветер,
м/с
пор.,
м/с
влажн.,
%
обл.,
%
осадки,
мм/ч
давл.,
гПа
погр.,
м
26 сентября, пн
пн2600:00+18вюв44260 0.0 101442
03:00+17вюв44280 0.0 101437
06:00+16юв33300 0.0 101624
09:00+21юв44210 0.0 1016264
12:00+25зсз43140 0.0 10151575
15:00+27зсз65120 0.0 10132201
18:00+25зсз67110 0.0 10141931
21:00+16ссз23272 0.0 101823
27 сентября, вт
вт2700:00+14сз225781 0.0 101923
03:00+13зсз2361100 0.0 1019152
06:00+10сз116512 0.0 102010
09:00+13зсз10430 0.0 1020318
12:00+18сз43280 0.0 1018798
15:00+19сз54230 0.0 10161180
18:00+18ссз33250 0.0 10171011
21:00+13св123528 0.0 101813
28 сентября, ср
ср2800:00+10ю11410 0.0 101710
03:00+9юв12422 0.0 101611
06:00+8ююв11465 0.0 101710
09:00+14ююв113088 0.0 1016214
12:00+18сз432099 0.0 1015866
15:00+19сз541727 0.0 10141145
18:00+17ссз2320100 0.0 1015393
21:00+13св12278 0.0 101617
29 сентября, чт
чт2900:00+9юв11340 0.0 101510
03:00+9вюв2233100 0.0 101512
06:00+8ююв0136100 0.0 101410
09:00+13ююз1126100 0.0 1014125
12:00+18сз431973 0.0 1013715
15:00+19сз651850 0.0 10131170
18:00+17ссз332399 0.0 1014595
21:00+12св1132100 0.0 101512
30 сентября, пт
пт3000:00+12юв2232100 0.0 101426
03:00+11з1135100 0.0 101417
06:00+10сз114193 0.0 101416
09:00+10юз114297 0.0 1016167
12:00+14сз4333100 0.0 1016649
15:00+15сз3328100 0.0 1015823
18:00+14ссз3330100 0.0 1017715
21:00+11всв1238100 0.0 101999